Location: Mainz-Finthen
(49.9906°N, 8.1713°E)
Time: 01:58:32
(UTC+00:00)

BlueWalker 3 - Pass Details

Date: 02 December 2022
Orbit: 499 x 517 km, 53.2° (Epoch: 26 January)

Event Time Altitude Azimuth Distance (km) Brightness Sun altitude
Rises 17:28:20 0° 279° (W) 2,632 6.9 -18.5°
Reaches altitude 10° 17:30:36 10° 285° (WNW) 1,741 5.6 -18.8°
Maximum altitude 17:34:27 52° 2° (N) 645 2.3 -19.5°
Enters shadow 17:34:57 48° 31° (NNE) 679 2.2 -19.5°
